2023/08/05 00:00:00, 0.0,24.0
2023/08/05 00:10:00, 0.0,25.0
2023/08/05 00:20:00, 0.0,25.1
2023/08/05 00:30:00, 0.0,25.1
2023/08/05 00:40:00, 0.0,25.0
2023/08/05 00:50:00, 0.0,25.1
2023/08/05 01:00:00, 0.0,25.0
2023/08/05 01:10:00, 0.0,24.6
2023/08/05 01:20:00, 0.0,24.6
2023/08/05 01:30:00, 0.0,24.5
2023/08/05 01:40:00, 0.0,24.3
2023/08/05 01:50:00, 0.0,24.3
2023/08/05 02:00:00, 0.0,24.3
2023/08/05 02:10:00, 0.0,24.3
2023/08/05 02:20:00, 0.0,24.3
2023/08/05 02:30:00, 0.0,24.6
2023/08/05 02:40:00, 0.0,25.4
2023/08/05 02:50:00, 0.0,25.5
2023/08/05 03:00:00, 0.0,25.5
2023/08/05 03:10:00, 0.0,25.6
2023/08/05 03:20:00, 0.0,25.4
2023/08/05 03:30:00, 0.0,25.8
2023/08/05 03:40:00, 0.0,25.2
2023/08/05 03:50:00, 0.0,25.8
2023/08/05 04:00:00, 0.0,25.8
2023/08/05 04:10:00, 0.0,25.9
2023/08/05 04:20:00, 0.0,25.7
2023/08/05 04:30:00, 0.0,25.5
2023/08/05 04:40:00, 0.0,25.5
2023/08/05 04:50:00, 0.0,25.4
2023/08/05 05:00:00, 0.0,25.8
2023/08/05 05:10:00, 0.0,25.7
2023/08/05 05:20:00, 0.0,25.8
2023/08/05 05:30:00, 0.0,25.8
2023/08/05 05:40:00, 0.0,25.6
2023/08/05 05:50:00, 0.0,25.9
2023/08/05 06:00:00, 0.0,25.8
2023/08/05 06:10:00, 0.0,27.6
2023/08/05 06:20:00, 0.0,31.0
2023/08/05 06:30:00, 0.0,29.1
2023/08/05 06:40:00, 0.0,27.6
2023/08/05 06:50:00, 0.0,27.6
2023/08/05 07:00:00, 0.0,28.7
2023/08/05 07:10:00, 0.0,29.7
2023/08/05 07:20:00, 0.0,33.6
2023/08/05 07:30:00, 0.0,32.1
2023/08/05 07:40:00, 0.0,30.1
